Flag for Switzerland Weather past 2 weeks in Renens, Vaud, Switzerland

Now
56 °F

Light rain. Passing clouds.


Feels Like: 56 °F
Forecast: 56 / 73 °F
Wind: 5 mph from South

Location: Aigle

Current Time: Jul 25, 2014 at 5:58:06 AM

Latest Report: Jul 25, 2014 at 5:00 AM


Visibility: 8 mi

Pressure: 29.96 "Hg

Humidity: 96%

Dew point: 55 °F

Location of RenensLocation

Historic Weather in Renens — Graph

°F

Renens temperature yesterday

Maximum temperature yesterday: 73 °F (at 4:00 PM)
Minimum temperature yesterday: 60 °F (at 11:00 PM)
Average temperature yesterday: 67 °F

Past Weeks' High & Low Weather Summary

 TemperatureHumidityPressure
High85 °F (Jul 18, 6:00 PM)100% (Jul 12, 2:00 AM)30.19 "Hg (Jul 12, 2:00 AM)
Low50 °F (Jul 10, 6:00 AM)42% (Jul 19, 4:00 PM)29.80 "Hg (Jul 20, 6:00 PM)
Average65 °F83%29.98 "Hg
* Reported Jul 10 4:00 AM — Jul 25 4:00 AM, Renens, Weather by CustomWeather, © 2014

Note: Actual official high and low records may vary slightly from our data, if they occured in-between our weather recording intervals... More about our weather records

Advertising

Renens weather history for previous 24 hours

 ConditionsComfort  
Time TempWeatherWind HumidityBarometerVisibility
4:00 AM
Jul 25
57 °FCool.5 mph94%29.96 "HgN/A
3:00 AM57 °FCool.5 mph95%29.96 "HgN/A
2:00 AM58 °FCool.6 mph95%29.96 "HgN/A
1:00 AM58 °FCool.5 mph94%29.96 "HgN/A
12:00 AM60 °FCool.6 mph96%29.96 "HgN/A
11:00 PM
Jul 24
60 °FCool.6 mph92%29.97 "HgN/A
10:00 PM61 °FCool.9 mph88%29.97 "HgN/A
9:00 PM66 °FMild.7 mph94%29.92 "HgN/A
8:00 PM68 °FScattered clouds.1 mph82%29.88 "Hg19 mi
7:00 PM71 °FMild.2 mph69%29.87 "HgN/A
6:00 PM73 °FMild.8 mph66%29.86 "HgN/A
5:00 PM73 °FPartly sunny.5 mph69%29.86 "Hg7 mi
4:00 PM73 °FMild.3 mph69%29.85 "HgN/A
3:00 PM72 °FMild.2 mph72%29.86 "HgN/A
2:00 PM69 °FScattered clouds.5 mph85%29.87 "Hg12 mi
1:00 PM67 °FMild.2 mph91%29.90 "HgN/A
12:00 PM66 °FMild.1 mph92%29.90 "HgN/A
11:00 AM68 °FRain showers. Overcast.2 mph75%29.88 "Hg5 mi
10:00 AM68 °FMild.2 mph82%29.87 "HgN/A
9:00 AM65 °FMild.6 mph84%29.86 "HgN/A
8:00 AM64 °FMild.3 mph84%29.87 "HgN/A
7:00 AM64 °FMild.7 mph84%29.86 "HgN/A
6:00 AM63 °FMild.9 mph87%29.86 "HgN/A
5:00 AM63 °FHeavy rain. Overcast.8 mph93%29.86 "Hg6 mi
Weather by CustomWeather, © 2014

See weather overviewHow to use our weather pages